Retour au catalogue

YUNYAO-1 19

ActifScienceVLEO
NORAD 58759·PAYLOAD·🇨🇳 China

Lancé Jan 11, 2024 depuis Yellow Sea Launch Area

Loading…

Prochains Passages (prochaines 24 heures)

TLE

FraisSource: Space-Track

Époque: Sep 14, 2026, 15:03 UTC

1 58759U 24009B   26257.62710618  .00007628  00000-0  36989-3 0  9993
2 58759  49.9838  89.6800 0004918 281.7825  78.2576 15.19368944148269

Suivez YUNYAO-1 19 en temps réel avec AllMySat

Download on the App Store